NOZ3737 LIRP-EKCH

Flight info

Callsign NOZ3737
Flight time N/A
Altitude 36000
Route LIRP/04R N0460F360 BERO6B BEROK L153 OSBUL DCT ELTAR DCT TAGIP DCT GUNGO DCT BRENO DCT KONIN DCT EXITI DCT NOBRI M726 ROSOK Q296 MONAK MONA5C EKCH/22R
Aircraft B738/M-LNENV/L

Departure

Time 2026-04-21 17:24
Airport Pisa International Airport (LIRP)

Arrival

Time N/A
Airport Copenhagen Kastrup Airport (EKCH)
Time Latitude Longitude Altitude Speed Heading
2026-04-21 16:53 43.69759 10.40093 14 ft 0 kts
2026-04-21 17:13 43.69747 10.40090 16 ft 4 kts
2026-04-21 17:13 43.69721 10.40093 15 ft 4 kts 337°
2026-04-21 17:13 43.69704 10.40112 15 ft 4 kts 273°
2026-04-21 17:14 43.69705 10.40123 14 ft 1 kts 244°
2026-04-21 17:17 43.69695 10.40095 14 ft 7 kts 244°
2026-04-21 17:18 43.69658 10.40055 14 ft 10 kts 184°
2026-04-21 17:18 43.69572 10.40069 15 ft 15 kts 172°
2026-04-21 17:18 43.69459 10.40092 19 ft 17 kts 172°
2026-04-21 17:18 43.69358 10.40155 21 ft 16 kts 135°
2026-04-21 17:19 43.69278 10.40295 19 ft 16 kts 133°
2026-04-21 17:19 43.69198 10.40274 19 ft 13 kts 216°
2026-04-21 17:19 43.69111 10.40184 19 ft 20 kts 217°
2026-04-21 17:19 43.68978 10.40047 18 ft 28 kts 217°
2026-04-21 17:20 43.68812 10.39876 17 ft 31 kts 217°
2026-04-21 17:20 43.68632 10.39691 17 ft 33 kts 217°
2026-04-21 17:20 43.68447 10.39499 19 ft 33 kts 217°
2026-04-21 17:20 43.68256 10.39302 17 ft 35 kts 217°
2026-04-21 17:21 43.68057 10.39097 15 ft 36 kts 217°
2026-04-21 17:21 43.67866 10.38901 15 ft 33 kts 217°
2026-04-21 17:21 43.67691 10.38721 17 ft 28 kts 217°
2026-04-21 17:21 43.67548 10.38573 18 ft 25 kts 217°
2026-04-21 17:22 43.67458 10.38480 17 ft 24 kts 217°
2026-04-21 17:22 43.67348 10.38366 14 ft 13 kts 217°
2026-04-21 17:22 43.67301 10.38270 14 ft 13 kts 287°
2026-04-21 17:22 43.67351 10.38168 14 ft 13 kts 306°
2026-04-21 17:23 43.67388 10.38112 14 ft 10 kts 329°
2026-04-21 17:23 43.67478 10.38170 15 ft 21 kts 36°
2026-04-21 17:23 43.67810 10.38514 14 ft 97 kts 37°
2026-04-21 17:23 43.68533 10.39273 41 ft 158 kts 41°
2026-04-21 17:24 43.69414 10.40257 690 ft 166 kts 41°
2026-04-21 17:24 43.70326 10.41305 1427 ft 176 kts 39°
2026-04-21 17:24 43.70964 10.42040 1894 ft 182 kts 38°
2026-04-21 17:24 43.71976 10.43139 2616 ft 191 kts 34°
2026-04-21 17:25 43.73237 10.43925 3091 ft 207 kts
2026-04-21 17:25 43.74673 10.43630 3380 ft 220 kts 329°
2026-04-21 17:25 43.75823 10.42175 3826 ft 228 kts 309°
2026-04-21 17:25 43.77080 10.40710 4346 ft 243 kts 325°
2026-04-21 17:26 43.78465 10.39467 5293 ft 239 kts 324°
2026-04-21 17:26 43.79851 10.38163 6140 ft 242 kts 322°
2026-04-21 17:26 43.81296 10.36945 6922 ft 248 kts 336°
2026-04-21 17:26 43.82996 10.36446 7734 ft 252 kts 352°
2026-04-21 17:27 43.84771 10.36329 8560 ft 255 kts 355°
2026-04-21 17:27 43.86545 10.36287 9344 ft 261 kts 355°
2026-04-21 17:27 43.88438 10.36247 9766 ft 279 kts 355°
2026-04-21 17:27 43.90418 10.36200 10218 ft 295 kts 355°
2026-04-21 17:28 43.92558 10.36130 10403 ft 319 kts 355°
2026-04-21 17:28 43.94876 10.36048 10557 ft 342 kts 355°
2026-04-21 17:28 43.97292 10.35958 10778 ft 360 kts 355°
2026-04-21 17:28 43.99834 10.35863 11257 ft 369 kts 355°
2026-04-21 17:29 44.02418 10.35766 11915 ft 372 kts 355°
2026-04-21 17:29 44.05009 10.35666 12703 ft 372 kts 355°
2026-04-21 17:29 44.07615 10.35563 13416 ft 376 kts 354°
2026-04-21 17:29 44.10245 10.35459 14071 ft 379 kts 354°
2026-04-21 17:30 44.12895 10.35349 14672 ft 382 kts 354°
2026-04-21 17:30 44.15562 10.35242 15264 ft 385 kts 354°
2026-04-21 17:30 44.18242 10.35106 15921 ft 385 kts 352°
2026-04-21 17:30 44.20921 10.34887 16507 ft 389 kts 352°
2026-04-21 17:31 44.23612 10.34633 17066 ft 393 kts 351°
2026-04-21 17:31 44.26290 10.34374 17732 ft 394 kts 351°
2026-04-21 17:31 44.29112 10.34104 18322 ft 396 kts 351°
2026-04-21 17:31 44.31874 10.33848 18811 ft 400 kts 351°
2026-04-21 17:32 44.34659 10.33592 19362 ft 401 kts 351°
2026-04-21 17:32 44.37456 10.33338 19853 ft 404 kts 350°
2026-04-21 17:32 44.40270 10.33082 20320 ft 407 kts 351°
2026-04-21 17:32 44.43112 10.32827 20868 ft 408 kts 350°
2026-04-21 17:33 44.45871 10.32580 21356 ft 410 kts 350°
2026-04-21 17:33 44.48726 10.32323 21822 ft 412 kts 350°
2026-04-21 17:33 44.51572 10.32067 22257 ft 414 kts 350°
2026-04-21 17:33 44.54453 10.31808 22688 ft 416 kts 350°
2026-04-21 17:34 44.57319 10.31550 23102 ft 418 kts 350°
2026-04-21 17:34 44.60268 10.31285 23536 ft 420 kts 350°
2026-04-21 17:34 44.63231 10.31017 23901 ft 422 kts 350°
2026-04-21 17:34 44.66136 10.30755 24273 ft 423 kts 350°
2026-04-21 17:35 44.69119 10.30486 24622 ft 425 kts 350°
2026-04-21 17:35 44.72076 10.30218 24960 ft 427 kts 349°
2026-04-21 17:35 44.75049 10.29949 25293 ft 428 kts 349°
2026-04-21 17:35 44.77837 10.29695 25604 ft 429 kts 349°
2026-04-21 17:36 44.80858 10.29555 25911 ft 436 kts 355°
2026-04-21 17:36 44.83909 10.29969 26213 ft 445 kts
2026-04-21 17:36 44.86944 10.31022 26592 ft 451 kts
2026-04-21 17:36 44.89952 10.32256 27063 ft 450 kts
2026-04-21 17:37 44.92941 10.33505 27537 ft 447 kts
2026-04-21 17:37 44.95890 10.34733 27953 ft 447 kts
2026-04-21 17:37 44.98871 10.35960 28351 ft 446 kts
2026-04-21 17:37 45.01856 10.37177 28796 ft 444 kts
2026-04-21 17:38 45.04747 10.38348 29239 ft 442 kts
2026-04-21 17:38 45.06388 10.39010 29477 ft 442 kts
2026-04-21 17:38 45.09402 10.40225 29886 ft 441 kts
2026-04-21 17:38 45.12344 10.41411 30253 ft 440 kts
2026-04-21 17:39 45.14928 10.42454 30579 ft 439 kts
2026-04-21 17:39 45.17937 10.43670 30893 ft 439 kts
2026-04-21 17:39 45.20864 10.44854 31205 ft 439 kts
2026-04-21 17:39 45.23810 10.46048 31550 ft 438 kts
2026-04-21 17:40 45.26729 10.47233 31892 ft 437 kts
2026-04-21 17:40 45.29654 10.48421 32207 ft 436 kts
2026-04-21 17:40 45.32582 10.49611 32498 ft 436 kts
2026-04-21 17:40 45.35515 10.50805 32828 ft 435 kts
2026-04-21 17:41 45.38428 10.51993 33163 ft 434 kts
2026-04-21 17:41 45.41370 10.53194 33459 ft 434 kts
2026-04-21 17:41 45.44245 10.54367 33729 ft 434 kts
2026-04-21 17:41 45.47189 10.55571 34025 ft 433 kts
2026-04-21 17:42 45.49976 10.56712 34244 ft 433 kts
2026-04-21 17:42 45.52985 10.57944 34446 ft 434 kts
2026-04-21 17:42 45.55900 10.59139 34645 ft 434 kts
2026-04-21 17:42 45.58772 10.60319 34865 ft 434 kts
2026-04-21 17:43 45.61633 10.61495 35080 ft 434 kts
2026-04-21 17:43 45.64564 10.62686 35252 ft 433 kts
2026-04-21 17:43 45.67499 10.63533 35426 ft 428 kts
2026-04-21 17:43 45.70383 10.64151 35666 ft 426 kts
2026-04-21 17:44 45.73287 10.64722 35854 ft 426 kts
2026-04-21 17:44 45.76246 10.65309 35992 ft 428 kts
2026-04-21 17:44 45.82124 10.66543 35991 ft 428 kts
2026-04-21 17:45 45.86913 10.67586 36005 ft 429 kts
2026-04-21 17:45 45.89918 10.68241 36023 ft 429 kts
2026-04-21 17:46 45.93684 10.69535 36005 ft 440 kts 11°
2026-04-21 17:46 45.98224 10.72076 36012 ft 446 kts 15°
2026-04-21 17:47 46.03943 10.75798 36014 ft 449 kts 17°
2026-04-21 17:47 46.09604 10.79558 36014 ft 447 kts 17°
2026-04-21 17:48 46.15269 10.83267 36025 ft 445 kts 16°
2026-04-21 17:48 46.20918 10.86932 36027 ft 444 kts 16°
2026-04-21 17:49 46.26562 10.90591 36008 ft 444 kts 17°
2026-04-21 17:49 46.32174 10.94242 36034 ft 442 kts 17°
2026-04-21 17:50 46.37791 10.97903 36032 ft 443 kts 17°
2026-04-21 17:50 46.43421 11.01581 36008 ft 444 kts 17°
2026-04-21 17:51 46.49048 11.05269 36026 ft 443 kts 17°
2026-04-21 17:51 46.54672 11.08962 35979 ft 443 kts 17°
2026-04-21 17:52 46.60309 11.12671 35976 ft 444 kts 18°
2026-04-21 17:52 46.65932 11.16381 35984 ft 442 kts 18°
2026-04-21 17:53 46.71547 11.20093 35997 ft 444 kts 18°
2026-04-21 17:53 46.77164 11.23814 36025 ft 445 kts 18°
2026-04-21 17:54 46.82854 11.27593 36044 ft 447 kts 18°
2026-04-21 17:54 46.88519 11.31367 36050 ft 446 kts 18°
2026-04-21 17:55 46.94111 11.35098 36067 ft 445 kts 18°
2026-04-21 17:55 46.99990 11.37580 36100 ft 430 kts
2026-04-21 17:56 47.05872 11.37785 36103 ft 425 kts 354°
2026-04-21 17:56 47.11814 11.37632 36100 ft 423 kts 354°
2026-04-21 17:57 47.17725 11.37518 36113 ft 425 kts 354°
2026-04-21 17:57 47.23664 11.37438 36111 ft 426 kts 355°
2026-04-21 17:58 47.29609 11.37377 36100 ft 428 kts 355°
2026-04-21 17:58 47.35589 11.37317 36102 ft 430 kts 355°
2026-04-21 17:59 47.41566 11.37255 36117 ft 431 kts 355°
2026-04-21 17:59 47.47654 11.37193 36126 ft 432 kts 355°
2026-04-21 18:00 47.53680 11.37133 36127 ft 432 kts 355°
2026-04-21 18:00 47.59732 11.37070 36143 ft 433 kts 355°
2026-04-21 18:01 47.65739 11.37007 36152 ft 434 kts 356°
2026-04-21 18:01 47.71826 11.36944 36151 ft 433 kts 356°
2026-04-21 18:02 47.76714 11.36893 36154 ft 433 kts 356°
2026-04-21 18:02 47.82783 11.36830 36153 ft 433 kts 356°
2026-04-21 18:03 47.88729 11.36814 36163 ft 433 kts 357°
2026-04-21 18:03 47.94653 11.36953 36157 ft 433 kts 358°
2026-04-21 18:04 48.00607 11.37115 36162 ft 433 kts 358°
2026-04-21 18:04 48.06625 11.37264 36159 ft 433 kts 358°
2026-04-21 18:05 48.11629 11.37378 36160 ft 433 kts 358°
2026-04-21 18:05 48.17707 11.37514 36159 ft 433 kts 358°
2026-04-21 18:06 48.23710 11.37648 36164 ft 433 kts 358°
2026-04-21 18:06 48.29754 11.37783 36168 ft 434 kts 358°
2026-04-21 18:07 48.35805 11.37919 36179 ft 434 kts 358°
2026-04-21 18:07 48.41857 11.38056 36179 ft 435 kts 358°